Fort Greely, AK

9:09 AM AKST on December 02, 2016 (GMT -0900)
Allen Army Air Field

Weather History for PABI - June, 2013

Change the Weather History Date:

Friday, June 28, 2013

  Actual Average Record
Temperature  
Mean Temperature 66 °F -  
Max Temperature 72 °F 69 °F 78 °F (1997)
Min Temperature 60 °F 50 °F 45 °F (2014)
Cooling Degree Days 1    
Growing Degree Days 16 (Base 50)    
Moisture  
Dew Point 55 °F    
Average Humidity 68    
Maximum Humidity 88    
Minimum Humidity 53    
Precipitation  
Precipitation 0.04 in - - ()
Sea Level Pressure  
Sea Level Pressure 30.06 in    
Wind  
Wind Speed 6 mph (WSW)    
Max Wind Speed 12 mph    
Max Gust Speed -    
Visibility 4 miles    
Events Rain    
Averages and records for this station are not official NWS values.
T = Trace of Precipitation, MM = Missing Value Source: NWS Daily Summary

Daily Weather History Graph

Daily Weather History Graph

Search for Another Location

Airport or City:

Trip Planner

Search our weather history database for the weather conditions in past years. The results will help you decide how hot, cold, wet, or windy it might be!

Date:

Astronomy

Jun. 28, 2013 Rise Set
Actual Time 3:20 AM AKDT 12:11 AM AKDT
Civil Twilight Sun does not rise Sun does not rise
Nautical Twilight Sun does not rise Sun does not rise
Astronomical Twilight Sun does not rise Sun does not rise
Moon 12:29 AM AKDT (6/28) 12:34 PM AKDT (6/28)
Length of Visible Light 24h 00m
Length of Day
20h 50m
Waning Gibbous, 65% of the Moon is Illuminated
Jun 28
Waning Gibbous
Jun 29
Last Quarter
Jul 7
New
Jul 15
First Quarter
Jul 22
Full

Hourly Weather History & Observations

Time (AKDT) Temp. Dew Point Humidity Pressure Visibility Wind Dir Wind Speed Gust Speed Precip Events Conditions
12:40 AM 68.0 °F 57.2 °F 68% 30.02 in 3.0 mi West 6.9 mph - N/A   Haze
12:53 AM 66.9 °F 57.0 °F 70% 30.01 in 2.5 mi West 5.8 mph - N/A   Haze
1:11 AM 66.2 °F 55.4 °F 68% 30.04 in 1.8 mi WSW 4.6 mph - N/A   Haze
1:22 AM 66.2 °F 55.4 °F 68% 30.04 in 1.8 mi West 6.9 mph - N/A   Haze
1:53 AM 66.9 °F 54.0 °F 63% 30.02 in 1.2 mi West 8.1 mph - N/A   Haze
2:29 AM 66.2 °F 53.6 °F 64% 30.06 in 2.5 mi WNW 6.9 mph - N/A   Haze
2:53 AM 66.0 °F 52.0 °F 60% 30.03 in 3.0 mi WNW 8.1 mph - N/A   Haze
3:53 AM 64.9 °F 52.0 °F 63% 30.04 in 2.5 mi West 5.8 mph - N/A   Haze
4:18 AM 64.4 °F 51.8 °F 64% 30.06 in 1.8 mi WSW 8.1 mph - N/A   Haze
4:26 AM 64.4 °F 51.8 °F 64% 30.06 in 2.5 mi WSW 8.1 mph - N/A   Haze
4:34 AM 64.4 °F 51.8 °F 64% 30.06 in 3.0 mi WSW 8.1 mph - N/A   Haze
4:53 AM 64.0 °F 51.1 °F 63% 30.04 in 2.5 mi WSW 9.2 mph - N/A   Haze
5:20 AM 64.4 °F 51.8 °F 64% 30.06 in 1.8 mi West 5.8 mph - N/A   Haze
5:53 AM 64.0 °F 51.1 °F 63% 30.04 in 1.5 mi WSW 6.9 mph - N/A   Haze
6:53 AM 64.0 °F 52.0 °F 65% 30.06 in 1.2 mi WSW 5.8 mph - N/A   Smoke
7:43 AM 64.4 °F 53.6 °F 68% 30.08 in 2.0 mi SW 6.9 mph - N/A   Smoke
7:53 AM 64.9 °F 54.0 °F 68% 30.06 in 1.2 mi SW 6.9 mph - N/A   Smoke
8:53 AM 64.9 °F 55.0 °F 70% 30.07 in 1.5 mi WSW 6.9 mph - N/A   Smoke
9:43 AM 64.4 °F 53.6 °F 68% 30.09 in 2.0 mi SW 5.8 mph - N/A   Smoke
9:50 AM 64.4 °F 53.6 °F 68% 30.09 in 1.8 mi SW 4.6 mph - N/A   Smoke
9:53 AM 64.0 °F 54.0 °F 70% 30.08 in 1.8 mi WSW 5.8 mph - N/A   Smoke
10:02 AM 64.4 °F 53.6 °F 68% 30.09 in 2.0 mi WSW 5.8 mph - N/A   Smoke
10:44 AM 62.6 °F 57.2 °F 82% 30.09 in 1.8 mi SW 9.2 mph - 0.00 in Rain Light Rain
10:53 AM 61.0 °F 57.0 °F 87% 30.09 in 1.8 mi SSW 8.1 mph - 0.00 in Rain Light Rain
11:19 AM 60.8 °F 57.2 °F 88% 30.10 in 2.5 mi SSW 11.5 mph - 0.03 in Rain Light Rain
11:53 AM 62.1 °F 57.9 °F 86% 30.09 in 2.0 mi SW 8.1 mph - 0.05 in Rain Light Rain
12:53 PM 63.0 °F 57.9 °F 84% 30.10 in 2.5 mi SW 4.6 mph - 0.00 in   Smoke
1:53 PM 64.0 °F 57.9 °F 80% 30.09 in 2.5 mi Calm Calm - N/A   Smoke
2:53 PM 64.9 °F 57.0 °F 75% 30.09 in 2.5 mi SW 4.6 mph - N/A   Smoke
3:53 PM 66.0 °F 57.9 °F 75% 30.08 in 2.5 mi WNW 4.6 mph - N/A   Smoke
4:02 PM 66.2 °F 57.2 °F 73% 30.09 in 3.0 mi West 4.6 mph - N/A   Smoke
4:53 PM 66.0 °F 57.0 °F 73% 30.07 in 4.0 mi West 3.5 mph - N/A   Smoke
5:53 PM 66.9 °F 52.0 °F 59% 30.06 in 9.0 mi Calm Calm - N/A   Smoke
6:53 PM 70.0 °F 54.0 °F 57% 30.04 in 9.0 mi Calm Calm - N/A   Smoke
7:53 PM 69.1 °F 53.1 °F 57% 30.04 in 9.0 mi Calm Calm - N/A   Smoke
8:53 PM 69.1 °F 54.0 °F 58% 30.03 in 9.0 mi East 3.5 mph - N/A   Smoke
9:27 PM 68.0 °F 53.6 °F 60% 30.04 in 9.0 mi Calm Calm - N/A   Smoke
9:53 PM 68.0 °F 55.0 °F 63% 30.03 in 10.0 mi Calm Calm - N/A   Mostly Cloudy
10:53 PM 64.9 °F 57.0 °F 75% 30.04 in 10.0 mi WNW 5.8 mph - N/A   Scattered Clouds
11:53 PM 63.0 °F 55.9 °F 78% 30.04 in 10.0 mi Calm Calm - N/A   Scattered Clouds